Simultaneous Nadir Overpasses (SNOs) Predictions

Prediction of SNOs between GOES-15 and TERRA Satellite Orbit:

Table of predicted SNOs for the next 14.0 days since TLE Epoch: 5/28/2022
Index Date Time (GOES-15) GOES-15 Lat,Lon TERRA Lat,Lon Distance(km) Time Diff (sec)
1 05/28/2022 06:34:25 0.20,-127.89 1.01,-124.22 418.29 80
2 05/28/2022 18:58:18 -0.19,-127.94 0.14,-129.36 162.88 80
3 05/30/2022 18:43:21 -0.20,-128.00 -0.55,-126.41 181.44 80
4 05/31/2022 07:07:23 0.18,-127.99 -0.59,-131.59 409.38 80
5 06/02/2022 06:55:05 0.19,-128.05 0.06,-128.63 65.85 80
6 06/04/2022 06:40:07 0.20,-128.10 0.71,-125.66 277.25 80
7 06/04/2022 19:04:01 -0.19,-128.14 0.36,-130.82 304.63 80
8 06/06/2022 18:49:02 -0.20,-128.19 -0.25,-127.85 38.41 80
9 06/08/2022 18:36:44 -0.21,-128.23 -0.93,-124.88 381.14 80
10 06/09/2022 07:00:46 0.19,-128.22 -0.19,-130.07 209.47 80
